GLOBALSTAR M086

Last updated on Mon Sep 21 2026 00:03:12 GMT+0000 (Coordinated Universal Time)

1 38045U 11080F 26263.62877422 -.00000089 00000+0 85056-4 0 9992 2 38045 51.9913 37.7417 0000556 235.4801 137.7196 12.62289282681717
UTC large
Height (km)
Speed (km/s)
/
Latitude / Longitude
Inclination (degrees)
Orbital Period (minutes)
Azimuth
Elevation
Range (km)
Doppler Factor

Next 0 passes for location: London (51.5072 / 0.1276)

No passes found over London.
GLOBALSTAR M086